Regional Weather Roundup
Issued by NWS

Home | Current Version | Previous Version | Graphics & Text | Print | Product List | Glossary On
Versions: 1 2 3 4 5 6 7 8 9 10 11 12 13 14 15 16 17 18 19 20 21 22 23 24 25 26 27 28 29 30 31 32 33 34 35 36 37 38 39 40 41 42 43 44 45 46 47 48 49 50
153
ASUS45 KBOU 252310
RWRCO

WEATHER ROUNDUP FOR COLORADO
NATIONAL WEATHER SERVICE DENVER/BOULDER CO
500 PM MDT SUN SEP 25 2016

NOTE: "FAIR" INDICATES FEW OR NO CLOUDS BELOW 12000 FEET WITH NO
SIGNIFICANT WEATHER AND/OR OBSTRUCTIONS TO VISIBILITY.

COZ001>005-013-030-031-260000-
...NORTHWEST COLORADO...

CITY           SKY/WX    TMP DP  RH WIND       PRES   REMARKS
CRAIG          FAIR      62  29  28 MISG      30.47S
HAYDEN         FAIR      59  27  29 W5        30.47F
MEEKER         FAIR      62  38  40 W8        30.45F
MOUNT WERNER   NOT AVBL
STEAMBOAT SPGS FAIR      59  33  36 NW5       30.47F
WALDEN           N/A     55  25  30 NW10      30.51R
$$

COZ006>008-011-260000-
...WEST CENTRAL VALLEYS...

CITY           SKY/WX    TMP DP  RH WIND       PRES   REMARKS
GRAND JUNCTION FAIR      69  39  33 W12       30.35F
MONTROSE       FAIR      64  32  30 NW6       30.40F
EAGLE          SUNNY     66  28  24 CALM      30.43S
RIFLE          FAIR      69  31  24 VRB5      30.38F
DELTA          FAIR      72  33  23 W10       30.36S
NUCLA          FAIR      70  30  23 NW3       30.39F
$$

COZ017>023-064>068-260000-
...SOUTHWEST COLORADO...

CITY           SKY/WX    TMP DP  RH WIND       PRES   REMARKS
DURANGO        FAIR      69  26  20 CALM      30.34F
CORTEZ         FAIR      72  33  24 SW9       30.32F
PAGOSA SPRINGS FAIR      68  24  19 SW6       30.40S
TELLURIDE      FAIR      59  34  39 W12       30.51S
WOLF CREEK PAS FAIR      46  30  53 S10       30.66S
$$

COZ009-010-012-014-032>034-037-058>063-260000-
...CENTRAL COLORADO...

CITY           SKY/WX    TMP DP  RH WIND       PRES   REMARKS
ASPEN          FAIR      63  24  22 N8        30.45S
BUENA VISTA    FAIR      66  24  20 SE6       30.40S
COPPER MTN     FAIR      50  21  32 NW13G22   30.67S
BERTHOUD PASS  FAIR      36  25  64 N20G30    30.68S
COTTONWOOD PAS FAIR      61  23  23 SE8       30.52S
GUNNISON       FAIR      64  34  32 W8        30.42F
KREMMLING      FAIR      64  21  19 W3        30.46S
LEADVILLE      FAIR      57  21  24 W12G21    30.52R
MONARCH PASS   FAIR      46  27  46 SW15G22   30.74S
SALIDA         FAIR      69  28  21 SE8       30.45F
SUNLIGHT       FAIR      45  34  65 NW7       30.66S
WILKERSON PASS FAIR      50  21  32 CALM      30.64S
$$

COZ069>075-260000-
...SAN LUIS VALLEY/SANGRE DE CRISTO MOUNTAINS...

CITY           SKY/WX    TMP DP  RH WIND       PRES   REMARKS
ALAMOSA        FAIR      66  25  21 W5        30.40S
LA VETA PASS   FAIR      45  30  57 MISG      30.57R
SAGUACHE       NOT AVBL
$$

COZ035-036-038>040-260000-
...NORTHERN COLORADO FRONT RANGE...

CITY           SKY/WX    TMP DP  RH WIND       PRES   REMARKS
DENVER INTL AP FAIR      67  29  24 NE10      30.38R
DMNS CITY PARK NOT AVBL
AURORA         SUNNY     67  30  25 NE9       30.38S
FRONT RANGE AP SUNNY     68  28  22 NE8       30.39S
ERIE MUNI ARPT FAIR      68  29  23 E9        30.37R
BOULDER MUN AP FAIR      68  32  26 E7        30.37R
CENTENNIAL     FAIR      65  29  25 E8        30.38S
BROOMFIELD     SUNNY     66  30  26 SE5       30.39R
FORT COLLINS   FAIR      68  34  28 S3        30.34S
LONGMONT       FAIR      70  34  26 E8        30.38R
$$

COZ041-046-047-076>085-087-088-260000-
...PIKES PEAK/PALMER DIVIDE AND SOUTHERN FOOTHILLS...

CITY           SKY/WX    TMP DP  RH WIND       PRES   REMARKS
COLO. SPRINGS  FAIR      65  29  25 S3        30.41S
A. F. ACADEMY  FAIR      63  30  28 SE8       30.41R
SCHRIEVER AFB  NOT AVBL
ELLICOTT       NOT AVBL
FALCON         FAIR      63  30  28 S6        30.44S
FORT CARSON    FAIR      65  30  26 SE9       30.38S
LIMON          FAIR      66  27  23 N7        30.39R
MONUMENT HILL  FAIR      59  30  33 E10       30.45R
TRINIDAD       FAIR      66  29  24 NE7       30.40S
$$

COZ042>045-048>051-090-091-260000-
...NORTHEAST COLORADO...

CITY           SKY/WX    TMP DP  RH WIND       PRES   REMARKS
GREELEY ARPT   FAIR      68  30  24 E6        30.35S
AKRON          FAIR      66  31  27 N9        30.37S
BURLINGTON     FAIR      68  30  24 N14G24    30.35R
WRAY           FAIR      70  32  24 N13G18    30.34S
STERLING       FAIR      68  34  28 NE14      30.33S
HOLYOKE        FAIR      68  32  26 NW13G28   30.34S
FORT MORGAN    FAIR      69  27  21 N8        30.35S
$$

COZ086-089-092>099-260000-
...SOUTHEAST COLORADO...

CITY           SKY/WX    TMP DP  RH WIND       PRES   REMARKS
PUEBLO         FAIR      71  31  22 NW3       30.34S
LA JUNTA       FAIR      73  31  21 N7        30.34S
LAMAR          FAIR      73  31  21 NE12      30.31S
SPRINGFIELD    NOT AVBL
$$




USA.gov is the U.S. government's official web portal to all federal, state and local government web resources and services.